User: anonymous   Login
Location: Taupo
(38.6830°S, 176.0830°E)
Time: 16:50:23
(UTC+13:00)
Language:

Cosmos 1869 - Orbit

View from above orbital plane
View from above orbital plane
View from above satellite
View from above satellite

Ground track
Ground track

The orbit data is extracted from the following two-line orbital elements,

1 18214U 87062A   19290.30077627  .00000864  00000-0  53970-4 0  9998
2 18214  82.5059 342.6046 0013317 201.1695 158.8984 15.08149114756916
Epoch (UTC): 17 October 2019 07:13:07
Eccentricity: 0.0013317
inclination: 82.5059°
perigee height: 532 km
apogee height: 551 km
right ascension of ascending node: 342.6046°
argument of perigee: 201.1695°
revolutions per day: 15.08149114
mean anomaly at epoch: 158.8984°
orbit number at epoch: 75691

The dashed part of the orbit path shows where the satellite is in the earth's shadow,  

DLR